Weather Roundup
Issued by NWS

Home | Current Version | Previous Version | Text Only | Print | Product List | Glossary On
Versions: 1 2 3 4 5 6 7 8 9 10 11 12 13 14 15 16 17 18 19 20 21 22 23 24 25 26 27 28 29 30 31 32 33 34 35 36 37 38 39 40 41 42 43 44 45 46 47 48 49 50
569
NZUS93 KARX 281710
HRRWXR

CURRENT HOURLY OBSERVATIONS ACROSS
MUCH OF THE UPPER MISSISSIPPI VALLEY
NATIONAL WEATHER SERVICE LA CROSSE WI
1200 PM CDT SUN MAY 28 2017


...SOUTHEAST MINNESOTA...


CITY           SKY/WX    TMP DP  RH WIND       PRES   REMARKS
ROCHESTER      SUNNY     68  48  48 NW22      29.78S
ROCHESTER/MAYO FAIR      65  44  47 W23G32    29.76F
WINONA         SUNNY     70  45  40 W14G21    29.73F
AUSTIN         SUNNY     68  46  45 W13G23    29.79S
ALBERT LEA     SUNNY     70  45  40 W12G21    29.80S
DODGE CENTER   SUNNY     66  45  45 W20G26    29.78S
PRESTON        SUNNY     67  44  43 NW20G26   29.77F
OWATONNA       SUNNY     68  45  42 NW16G25   29.78F
FARIBAULT      MOSUNNY   68  46  45 W13G24    29.78S
$$

...ELSEWHERE IN MINNESOTA...


CITY           SKY/WX    TMP DP  RH WIND       PRES   REMARKS
MINNEAPOLIS    MOSUNNY   68  46  45 NW21G29   29.75S
INTNL FALLS    CLOUDY    58  51  78 SW6       29.64F
DULUTH         CLOUDY    59  51  75 SW9       29.65S HAZE
RED WING       SUNNY     68  39  34 W17       29.73S
REDWOOD FALLS  MOSUNNY   70  42  36 NW16G26   29.80F
MANKATO        MOSUNNY   68  44  42 NW17G29   29.79F
WORTHINGTON    MOSUNNY   68  44  42 W15G21    29.86S
FAIRMONT       SUNNY     69  43  38 NW13G22   29.83S
$$

...SOUTHWEST WISCONSIN...


CITY           SKY/WX    TMP DP  RH WIND       PRES   REMARKS
LA CROSSE      SUNNY     74  49  41 W13G22    29.72S
PRAIRIE DU CHI MOSUNNY   74  50  41 W13G20    29.75F
BOSCOBEL       MOSUNNY   74  54  49 SW9       29.74F
LONE ROCK      MOSUNNY   71  52  50 VRB6      29.74F
PLATTEVILLE    SUNNY     70  55  58 SW12      29.78F
FORT MC COY    MOSUNNY   71  52  50 W14G22    29.72F
CAMP DOUGLAS   PTSUNNY   70  52  54 W14G20    29.72F
MAUSTON-NEW LI CLOUDY    71  51  50 SW7       29.72F
VIROQUA        PTSUNNY   72  51  48 SW17G25   29.75F
WIS DELLS      SUNNY     69  50  51 W5        29.74F
$$

...ELSEWHERE IN WISCONSIN...


CITY           SKY/WX    TMP DP  RH WIND       PRES   REMARKS
MILWAUKEE      CLOUDY    62  59  90 NW7       29.75S
MADISON        MOSUNNY   66  56  70 VRB6      29.75F
GREEN BAY      PTSUNNY   63  60  90 SW6       29.72F
EAU CLAIRE     PTSUNNY   66  46  48 W17       29.69S
BLACK RVR FLS  FAIR      72  46  38 SW10G17   29.70F
MEDFORD        CLOUDY    64  51  63 SW18      29.68S
WAUSAU         SUNNY     68  52  56 S12       29.69F
WIS RAPIDS     SUNNY     71  52  50 SW14      29.73F
MARSHFIELD     PTSUNNY   68  52  56 S13       29.69F
RICE LAKE      PTSUNNY   65  45  48 W13       29.71S
$$

...NORTHEAST IOWA...


CITY           SKY/WX    TMP DP  RH WIND       PRES   REMARKS
WATERLOO       SUNNY     72  48  42 NW17G23   29.79F
DUBUQUE        SUNNY     71  55  56 W14       29.78F
DECORAH        SUNNY     72  45  37 W10G17    29.76S
MASON CITY     SUNNY     71  42  35 NW20G26   29.83S
CHARLES CITY   SUNNY     73  41  31 NW23      29.80S
OELWEIN        SUNNY     72  46  40 NW22G29   29.80S
$$

...ELSEWHERE IN IOWA...


CITY           SKY/WX    TMP DP  RH WIND       PRES   REMARKS
DES MOINES     SUNNY     74  52  46 W9        29.86S
IOWA CITY      SUNNY     74  56  53 NW12      29.82S
FORT DODGE     SUNNY     73  48  40 NW10      29.85F
MARSHALLTOWN   SUNNY     71  56  58 NW13      29.83S
CEDAR RAPIDS   SUNNY     72  58  61 NW13      29.80S
$$

...NORTHERN ILLINOIS...


CITY           SKY/WX    TMP DP  RH WIND       PRES   REMARKS
CHICAGO-OHARE  CLOUDY    73  59  61 W7        29.73F
CHICAGO-MIDWAY PTSUNNY   75  62  64 NW13      29.72F
MOLINE         SUNNY     74  50  42 NW10      29.80S
ROCKFORD       PTSUNNY   70  58  65 NW10      29.79R
PEORIA         MOSUNNY   73  57  57 NW12G17   29.79R
$$

NOTE: "FAIR" INDICATES FEW OR NO CLOUDS BELOW 12,000 FEET WITH NO
SIGNIFICANT WEATHER AND/OR OBSTRUCTIONS TO VISIBILITY. WIND
SPEEDS ARE IN MILES-PER-HOUR.




USA.gov is the U.S. government's official web portal to all federal, state and local government web resources and services.